Bangor, ME

4:24 PM EST on December 09, 2019 (GMT -0500)
Bangor International

Weather History for KBGR - September, 2019

Change the Weather History Date:

Sunday, September 22, 2019

  Actual Average Record
Temperature  
Mean Temperature 66 °F 56 °F  
Max Temperature 80 °F 67 °F 90 °F (1965)
Min Temperature 52 °F 46 °F 30 °F (1929)
Degree Days  
Heating Degree Days 0 9  
Month to date heating degree days 143 124  
Since 1 July heating degree days 159 187  
Cooling Degree Days 1 0  
Month to date cooling degree days 7 21  
Year to date cooling degree days 329 315  
Growing Degree Days 16 (Base 50)    
Moisture  
Dew Point 59 °F    
Average Humidity 79    
Maximum Humidity 100    
Minimum Humidity 58    
Precipitation  
Precipitation 0.00 in 0.14 in 1.22 in (1983)
Month to date precipitation 1.19 2.67  
Year to date precipitation 37.40 28.92  
Snow  
Snow 0.00 in 0.00 in 0.00 in (2002)
Month to date snowfall 0.0 0.0  
Since 1 July snowfall 0.0 0.0  
Since 1 September snowfall 0.0 0.0  
Snow Depth 0.00 in    
Sea Level Pressure  
Sea Level Pressure 30.01 in    
Wind  
Wind Speed 6 mph (South)    
Max Wind Speed 16 mph    
Max Gust Speed 19 mph    
Visibility 10 miles    
Events Fog    
T = Trace of Precipitation, MM = Missing Value Source: NWS Daily Summary

Daily Weather History Graph

Daily Weather History Graph

Search for Another Location

Airport or City:

Astronomy

Sep. 22, 2019 Rise Set
Actual Time 6:22 AM EDT 6:33 PM EDT
Civil Twilight 5:52 AM EDT 7:02 PM EDT
Nautical Twilight 5:18 AM EDT 7:36 PM EDT
Astronomical Twilight 4:43 AM EDT 8:11 PM EDT
Moon 11:46 PM EDT (9/22) 2:41 PM EDT (9/22)
Length of Visible Light 13h 09m
Length of Day
12h 11m
Last Quarter, 44% of the Moon is Illuminated
Sep 22
Last Quarter
Sep 28
New
Oct 5
First Quarter
Oct 13
Full
Oct 21
Last Quarter

Hourly Weather History & Observations

Time (EDT) Temp. Heat Index Dew Point Humidity Pressure Visibility Wind Dir Wind Speed Gust Speed Precip Events Conditions
12:53 AM 55.9 °F - 55.0 °F 97% 30.15 in 10.0 mi South 3.5 mph - N/A   Partly Cloudy
1:53 AM 55.0 °F - 54.0 °F 96% 30.15 in 10.0 mi South 3.5 mph - N/A   Clear
2:53 AM 57.0 °F - 55.9 °F 96% 30.14 in 10.0 mi South 4.6 mph - N/A   Clear
3:53 AM 55.9 °F - 55.0 °F 97% 30.13 in 10.0 mi SSW 4.6 mph - N/A   Clear
4:53 AM 55.0 °F - 54.0 °F 96% 30.13 in 10.0 mi Calm Calm - N/A   Clear
5:53 AM 54.0 °F - 54.0 °F 100% 30.12 in 10.0 mi South 3.5 mph - N/A   Partly Cloudy
6:53 AM 53.1 °F - 53.1 °F 100% 30.12 in 10.0 mi Calm Calm - N/A Fog Shallow Fog
7:53 AM 59.0 °F - 57.0 °F 93% 30.11 in 10.0 mi SSW 4.6 mph - N/A   Mostly Cloudy
8:53 AM 63.0 °F - 59.0 °F 87% 30.11 in 10.0 mi SSW 8.1 mph - N/A   Scattered Clouds
9:53 AM 66.9 °F - 60.1 °F 79% 30.08 in 10.0 mi SSE 6.9 mph - N/A   Mostly Cloudy
10:53 AM 71.1 °F - 62.1 °F 73% 30.06 in 10.0 mi SSE 6.9 mph - N/A   Mostly Cloudy
11:53 AM 75.9 °F - 64.0 °F 67% 30.05 in 10.0 mi South 8.1 mph - N/A   Mostly Cloudy
12:53 PM 78.1 °F - 64.0 °F 62% 30.00 in 10.0 mi South 9.2 mph - N/A   Scattered Clouds
1:53 PM 80.1 °F 81.9 °F 64.9 °F 60% 29.98 in 10.0 mi South 12.7 mph - N/A   Scattered Clouds
2:53 PM 77.0 °F - 63.0 °F 62% 29.95 in 10.0 mi South 12.7 mph - N/A   Mostly Cloudy
3:53 PM 75.0 °F - 61.0 °F 62% 29.94 in 10.0 mi South 13.8 mph - N/A   Mostly Cloudy
4:53 PM 73.0 °F - 62.1 °F 68% 29.93 in 10.0 mi South 10.4 mph - N/A   Mostly Cloudy
5:53 PM 70.0 °F - 61.0 °F 73% 29.92 in 10.0 mi South 11.5 mph - N/A   Mostly Cloudy
6:53 PM 68.0 °F - 61.0 °F 78% 29.91 in 10.0 mi South 10.4 mph - N/A   Mostly Cloudy
7:53 PM 66.9 °F - 60.1 °F 79% 29.91 in 10.0 mi South 6.9 mph - N/A   Mostly Cloudy
8:53 PM 66.9 °F - 59.0 °F 76% 29.89 in 10.0 mi South 5.8 mph - N/A   Mostly Cloudy
9:53 PM 66.9 °F - 59.0 °F 76% 29.86 in 10.0 mi South 9.2 mph - N/A   Mostly Cloudy
10:53 PM 66.0 °F - 59.0 °F 78% 29.84 in 10.0 mi South 8.1 mph - N/A   Scattered Clouds
11:53 PM 66.0 °F - 59.0 °F 78% 29.81 in 10.0 mi South 10.4 mph - N/A   Partly Cloudy